Content
SEND FEEDBACK

Daily
Averages
Monthly
Summary
Greece

MITILINI, GREECE


Home > Europe > Greece
Elevation: 16 feet     Latitude: 39 04N     Longitude: 026 36E

WEATHER
 
SELECT A DAY
Number of Records: 88,556;   Date Range: 7/9/96 - 7/27/14
 
SHARE

PRINT THIS DATA

[ ← Previous Day ]
WEATHER ALMANAC - FEBRUARY 28, 2013
[ Next Day → ]
[ °C ]   °F
Weather ElementAverageHighLow
Temperature49.8 °F53.6 °F (12:20 pm)46.4 °F (9:20 pm)
Dewpoint39.9 °F44.6 °F (6:50 am)37.4 °F (1:50 pm)
Humidity68.4 %82 % (6:50 am)50 % (2:00 pm)
Barometer30.13 in30.19 in (8:00 pm)30.04 in (1:50 am)
Wind Speed8.5 mph12.7 mph (8:50 am)
Weather ElementAverage
Visibility6.3 mi
Wind DirectionENE (53.8 °)

Weather ElementTotal
Precipitation---
Heating Degree Days15 (Base 65)
Averaged from 45 records on February 28, 2013
WEATHER CONDITIONS BREAKOUT
WIND DIRECTION BREAKOUT
WEATHER BY HOUR - FEBRUARY 28, 2013
[ °C ]   °F
Local TimeTemperatureDewpointHumidityBarometerVisibilityWind DirectionWind SpeedGust SpeedPrecipitationEventsConditions
1:50 AM50.0 °F42.8 °F76 %30.04 in6.2 miNE (40°)6.9 mphMostly Cloudy
2:00 AM50.0 °F44.0 °F71 %30.05 in6.0 miNE (40°)6.9 mphPartly Cloudy
2:50 AM50.0 °F41.0 °F71 %30.06 in6.2 miNorth (360°)8.1 mphScattered Clouds
3:50 AM50.0 °F39.2 °F66 %30.06 in6.2 miNorth (10°)8.1 mphMostly Cloudy
4:20 AM50.0 °F39.2 °F66 %30.06 in6.2 miNorth (10°)8.1 mphMostly Cloudy
4:50 AM50.0 °F39.2 °F66 %30.06 in6.2 miNorth (10°)8.1 mphMostly Cloudy
5:20 AM50.0 °F39.2 °F66 %30.06 in6.2 miNorth (10°)8.1 mphMostly Cloudy
5:50 AM48.2 °F41.0 °F76 %30.06 in6.2 miNE (50°)5.8 mphMostly Cloudy
6:20 AM48.2 °F41.0 °F76 %30.06 in6.2 miNE (50°)5.8 mphMostly Cloudy
6:50 AM50.0 °F44.6 °F82 %30.09 in6.2 miNE (40°)4.6 mphMostly Cloudy
7:20 AM50.0 °F44.6 °F82 %30.09 in6.2 miNE (40°)4.6 mphScattered Clouds
7:50 AM48.2 °F39.2 °F71 %30.09 in6.2 miNorth (10°)11.5 mphScattered Clouds
8:20 AM50.0 °F39.2 °F66 %30.09 in6.2 miNorth (10°)11.5 mphScattered Clouds
8:50 AM50.0 °F39.2 °F66 %30.12 in6.2 miNNE (30°)12.7 mphScattered Clouds
9:20 AM50.0 °F39.2 °F66 %30.12 in6.2 miNNE (30°)12.7 mphScattered Clouds
9:50 AM51.8 °F41.0 °F67 %30.12 in6.2 miNNE (30°)9.2 mphScattered Clouds
10:20 AM51.8 °F41.0 °F67 %30.15 in6.2 miNNE (30°)9.2 mphScattered Clouds
10:50 AM51.8 °F41.0 °F67 %30.15 in6.2 miNE (40°)9.2 mphScattered Clouds
11:20 AM51.8 °F41.0 °F67 %30.15 in6.2 miNE (40°)9.2 mphScattered Clouds
11:50 AM51.8 °F39.2 °F62 %30.15 in6.2 miNE (40°)6.9 mphScattered Clouds
12:20 PM53.6 °F39.2 °F58 %30.15 in6.2 miNE (40°)6.9 mphScattered Clouds
12:50 PM53.6 °F39.2 °F58 %30.15 in6.2 miNorth (10°)8.1 mphScattered Clouds
1:20 PM53.6 °F39.2 °F58 %30.15 in6.2 miNorth (10°)8.1 mphScattered Clouds
1:50 PM51.8 °F37.4 °F58 %30.15 in6.2 miNorth (350°)9.2 mphScattered Clouds
2:00 PM51.0 °F38.0 °F50 %30.17 in9.0 miNorth (350°)9.2 mphMostly Cloudy
2:20 PM51.8 °F37.4 °F58 %30.15 in6.2 miNE (40°)9.2 mphScattered Clouds
2:50 PM50.0 °F39.2 °F66 %30.15 in6.2 miNE (50°)9.2 mphScattered Clouds
3:20 PM50.0 °F39.2 °F66 %30.15 in6.2 miNE (50°)9.2 mphScattered Clouds
3:50 PM50.0 °F39.2 °F66 %30.15 in6.2 miNE (50°)9.2 mphMostly Cloudy
4:20 PM50.0 °F39.2 °F66 %30.15 in6.2 miNE (50°)8.1 mphMostly Cloudy
4:50 PM50.0 °F37.4 °F62 %30.15 in6.2 miNE (50°)9.2 mphMostly Cloudy
5:20 PM50.0 °F39.2 °F66 %30.15 in6.2 miNE (40°)8.1 mphMostly Cloudy
5:50 PM50.0 °F39.2 °F66 %30.15 in6.2 miNNE (30°)9.2 mphScattered Clouds
6:20 PM50.0 °F39.2 °F66 %30.15 in6.2 miESE (110°)8.1 mphMostly Cloudy
6:50 PM48.2 °F41.0 °F76 %30.15 in6.2 miEast (90°)4.6 mphMostly Cloudy
7:20 PM48.2 °F41.0 °F76 %30.15 in6.2 miNNE (20°)10.4 mphMostly Cloudy
7:50 PM48.2 °F41.0 °F76 %30.18 in6.2 miNNE (30°)11.5 mphMostly Cloudy
8:00 PM47.0 °F41.0 °F73 %30.19 in9.0 miNNE (30°)11.5 mphPartly Cloudy
8:20 PM48.2 °F41.0 °F76 %30.18 in6.2 miVariable3.5 mphMostly Cloudy
8:50 PM48.2 °F37.4 °F66 %30.18 in6.2 miNNE (30°)9.2 mphMostly Cloudy
9:20 PM46.4 °F37.4 °F71 %30.18 in6.2 miNNE (20°)10.4 mphMostly Cloudy
9:50 PM46.4 °F39.2 °F76 %30.18 in6.2 miNorth (10°)9.2 mphMostly Cloudy
10:20 PM46.4 °F39.2 °F76 %30.18 in6.2 miNNE (20°)6.9 mphMostly Cloudy
10:50 PM46.4 °F39.2 °F76 %30.18 in6.2 miNorth (10°)6.9 mphScattered Clouds
11:50 PM46.4 °F39.2 °F76 %30.18 in6.2 miNorth (10°)9.2 mphScattered Clouds
Hourly data recorded from LGMT, located miles away from Mitilini, Greece







STORIES FROM OUR PARTNERS